Weather History for Worthington, MN

Change the Weather History Date:

Thursday, February 9, 2012

  Actual Average Record
Temperature  
Mean Temperature 26 °F -  
Max Temperature 37 °F 27 °F 46 °F (1999)
Min Temperature 14 °F 11 °F -24 °F (1972)
Degree Days  
Heating Degree Days 40    
Moisture  
Dew Point 15 °F    
Average Humidity 70    
Maximum Humidity 86    
Minimum Humidity 52    
Precipitation  
Precipitation 0.00 in - - ()
Sea Level Pressure  
Sea Level Pressure 30.04 in    
Wind  
Wind Speed 13 mph (SW)    
Max Wind Speed 23 mph    
Max Gust Speed 29 mph    
Visibility 10 miles    
Events      
Averages and records for this station are not official NWS values.
T = Trace of Precipitation, MM = Missing Value Source: NWS Daily Summary

Daily Weather History Graph

Daily Weather History Graph

Search for Another Location

Airport:

Trip Planner

Search our weather history database for the weather conditions in past years. The results will help you decide how hot, cold, wet, or windy it might be!

Date:

Astronomy

Feb. 09, 2012 Rise Set
Actual Time 7:29 AM CST 5:43 PM CST
Civil Twilight 6:59 AM CST 6:13 PM CST
Nautical Twilight 6:26 AM CST 6:47 PM CST
Astronomical Twilight 5:52 AM CST 7:21 PM CST
Moon 8:20 PM CST (2/9) 8:00 AM CST (2/9)
Length of Visible Light 11h 13m
Length of Day
10h 14m
Waning Gibbous, 96% of the Moon is Illuminated
Feb 9
Waning Gibbous
Feb 14
Last Quarter
Feb 21
New
Feb 29
First Quarter
Mar 8
Full

Hourly Weather History & Observations

Time (CST) Temp. Windchill Dew Point Humidity Pressure Visibility Wind Dir Wind Speed Gust Speed Precip Events Conditions
12:15 AM 15.8 °F 4.2 °F 10.4 °F 79% 30.21 in 10.0 mi SW 9.2 mph - N/A   Clear
12:35 AM 15.8 °F 3.4 °F 10.4 °F 79% 30.21 in 10.0 mi SSW 10.4 mph - N/A   Clear
12:55 AM 15.8 °F 2.1 °F 10.4 °F 79% 30.19 in 10.0 mi SW 12.7 mph - N/A   Clear
1:15 AM 15.8 °F 2.7 °F 10.4 °F 79% 30.18 in 10.0 mi SW 11.5 mph - N/A   Clear
1:35 AM 15.8 °F 4.2 °F 8.6 °F 73% 30.18 in 10.0 mi West 9.2 mph - N/A   Clear
1:55 AM 15.8 °F 4.2 °F 8.6 °F 73% 30.18 in 10.0 mi SW 9.2 mph - N/A   Clear
2:15 AM 14.0 °F 2.0 °F 8.6 °F 79% 30.17 in 10.0 mi West 9.2 mph - N/A   Clear
2:35 AM 14.0 °F 2.0 °F 8.6 °F 79% 30.16 in 10.0 mi SW 9.2 mph - N/A   Clear
2:55 AM 15.8 °F 3.4 °F 10.4 °F 79% 30.15 in 10.0 mi SW 10.4 mph - N/A   Clear
3:15 AM 15.8 °F 3.4 °F 10.4 °F 79% 30.14 in 10.0 mi WSW 10.4 mph - N/A   Clear
3:35 AM 15.8 °F 2.1 °F 10.4 °F 79% 30.14 in 10.0 mi WSW 12.7 mph - N/A   Clear
3:55 AM 15.8 °F 2.7 °F 8.6 °F 73% 30.12 in 10.0 mi SW 11.5 mph - N/A   Clear
4:15 AM 15.8 °F 2.1 °F 8.6 °F 73% 30.12 in 10.0 mi West 12.7 mph - N/A   Clear
4:35 AM 14.0 °F 0.5 °F 8.6 °F 79% 30.12 in 10.0 mi NW 11.5 mph - N/A   Clear
4:55 AM 15.8 °F 2.7 °F 10.4 °F 79% 30.11 in 10.0 mi SW 11.5 mph - N/A   Clear
5:15 AM 14.0 °F 1.2 °F 8.6 °F 79% 30.11 in 10.0 mi SW 10.4 mph - N/A   Clear
5:35 AM 14.0 °F 1.2 °F 8.6 °F 79% 30.10 in 10.0 mi SW 10.4 mph - N/A   Clear
5:55 AM 14.0 °F 0.5 °F 8.6 °F 79% 30.10 in 10.0 mi SW 11.5 mph - N/A   Clear
6:15 AM 15.8 °F 0.9 °F 8.6 °F 73% 30.10 in 10.0 mi SW 15.0 mph - N/A   Clear
6:35 AM 15.8 °F 2.7 °F 10.4 °F 79% 30.09 in 10.0 mi SW 11.5 mph - N/A   Clear
6:55 AM 15.8 °F 2.1 °F 10.4 °F 79% 30.09 in 10.0 mi SSW 12.7 mph - N/A   Clear
7:15 AM 15.8 °F 0.9 °F 10.4 °F 79% 30.07 in 10.0 mi SSW 15.0 mph - N/A   Clear
7:35 AM 15.8 °F -0.2 °F 10.4 °F 79% 30.07 in 10.0 mi SW 17.3 mph - N/A   Clear
7:55 AM 15.8 °F 0.3 °F 10.4 °F 79% 30.07 in 10.0 mi SW 16.1 mph - N/A   Clear
8:15 AM 17.6 °F 3.2 °F 10.4 °F 73% 30.07 in 10.0 mi SW 15.0 mph - N/A   Clear
8:35 AM 17.6 °F 2.7 °F 12.2 °F 79% 30.07 in 10.0 mi SSW 16.1 mph - N/A   Clear
8:55 AM 19.4 °F 5.5 °F 14.0 °F 80% 30.06 in 10.0 mi SW 15.0 mph 19.6 mph N/A   Clear
9:15 AM 19.4 °F 5.5 °F 15.8 °F 86% 30.06 in 10.0 mi SW 15.0 mph - N/A   Clear
9:35 AM 21.2 °F 8.9 °F 15.8 °F 80% 30.06 in 10.0 mi SW 12.7 mph - N/A   Clear
9:55 AM 23.0 °F 9.6 °F 17.6 °F 80% 30.06 in 10.0 mi SSW 16.1 mph - N/A   Clear
10:15 AM 24.8 °F 11.5 °F 17.6 °F 74% 30.05 in 10.0 mi SSW 17.3 mph - N/A   Clear
10:35 AM 24.8 °F 12.4 °F 19.4 °F 80% 30.07 in 10.0 mi SSW 15.0 mph - N/A   Clear
10:55 AM 26.6 °F 15.2 °F 19.4 °F 74% 30.06 in 10.0 mi SW 13.8 mph - N/A   Clear
11:15 AM 28.4 °F 16.6 °F 19.4 °F 69% 30.01 in 10.0 mi SW 16.1 mph - N/A   Clear
11:35 AM 28.4 °F 16.2 °F 21.2 °F 74% 30.01 in 10.0 mi SSW 17.3 mph 20.7 mph N/A   Clear
11:55 AM 30.2 °F 18.1 °F 21.2 °F 69% 30.02 in 10.0 mi SSW 18.4 mph 23.0 mph N/A   Partly Cloudy
12:15 PM 32.0 °F 20.1 °F 21.2 °F 64% 29.99 in 10.0 mi SSW 19.6 mph - N/A   Partly Cloudy
12:35 PM 33.8 °F 21.9 °F 21.2 °F 60% 29.97 in 10.0 mi SSW 21.9 mph 28.8 mph N/A   Clear
12:55 PM 33.8 °F 21.6 °F 21.2 °F 60% 29.97 in 10.0 mi SSW 23.0 mph - N/A   Clear
1:15 PM 35.6 °F 24.0 °F 21.2 °F 56% 29.94 in 10.0 mi SSW 23.0 mph - N/A   Clear
1:35 PM 35.6 °F 24.2 °F 21.2 °F 56% 29.94 in 10.0 mi SSW 21.9 mph - N/A   Clear
1:55 PM 35.6 °F 24.5 °F 21.2 °F 56% 29.94 in 10.0 mi SSW 20.7 mph 24.2 mph N/A   Clear
2:15 PM 37.4 °F 27.2 °F 21.2 °F 52% 29.91 in 10.0 mi SW 19.6 mph 25.3 mph N/A   Clear
2:35 PM 37.4 °F 27.2 °F 21.2 °F 52% 29.90 in 10.0 mi SSW 19.6 mph 25.3 mph N/A   Clear
2:55 PM 37.4 °F 27.5 °F 21.2 °F 52% 29.90 in 10.0 mi SSW 18.4 mph - N/A   Clear
3:15 PM 37.4 °F 27.5 °F 21.2 °F 52% 29.92 in 10.0 mi SSW 18.4 mph - N/A   Clear
3:35 PM 37.4 °F 27.5 °F 21.2 °F 52% 29.91 in 10.0 mi SSW 18.4 mph - N/A   Clear
3:55 PM 35.6 °F 24.5 °F 21.2 °F 56% 29.90 in 10.0 mi SSW 20.7 mph - N/A   Clear
4:15 PM 35.6 °F 25.2 °F 21.2 °F 56% 29.90 in 10.0 mi SSW 18.4 mph 24.2 mph N/A   Clear
4:35 PM 35.6 °F 25.2 °F 21.2 °F 56% 29.89 in 10.0 mi SW 18.4 mph 23.0 mph N/A   Clear
4:55 PM 33.8 °F 22.8 °F 21.2 °F 60% 29.89 in 10.0 mi SSW 18.4 mph - N/A   Clear
5:15 PM 33.8 °F 23.5 °F 21.2 °F 60% 29.89 in 10.0 mi SSW 16.1 mph - N/A   Clear
5:35 PM 33.8 °F 24.3 °F 21.2 °F 60% 29.89 in 10.0 mi SSW 13.8 mph - N/A   Clear
5:55 PM 32.0 °F 22.1 °F 21.2 °F 64% 29.90 in 10.0 mi SW 13.8 mph - N/A   Clear
6:15 PM 32.0 °F 22.5 °F 21.2 °F 64% 29.91 in 10.0 mi SW 12.7 mph - N/A   Clear
6:35 PM 30.2 °F 20.2 °F 21.2 °F 69% 29.91 in 10.0 mi SW 12.7 mph - N/A   Clear
6:55 PM 30.2 °F 21.9 °F 21.2 °F 69% 29.90 in 10.0 mi SW 9.2 mph - N/A   Clear
7:15 PM 30.2 °F 21.3 °F 21.2 °F 69% 29.90 in 10.0 mi SSW 10.4 mph - N/A   Clear
7:35 PM 30.2 °F 19.8 °F 21.2 °F 69% 29.90 in 10.0 mi SSW 13.8 mph - N/A   Clear
7:55 PM 30.2 °F 19.8 °F 21.2 °F 69% 29.91 in 10.0 mi SW 13.8 mph - N/A   Scattered Clouds
8:15 PM 30.2 °F 19.8 °F 21.2 °F 69% 29.91 in 10.0 mi WSW 13.8 mph - N/A   Scattered Clouds
8:35 PM 28.4 °F 17.5 °F 21.2 °F 74% 29.93 in 10.0 mi WSW 13.8 mph 24.2 mph N/A   Mostly Cloudy
8:55 PM 26.6 °F 13.8 °F 17.6 °F 69% 29.97 in 10.0 mi WNW 17.3 mph - N/A   Overcast
9:15 PM 24.8 °F 11.1 °F 15.8 °F 69% 29.99 in 10.0 mi NNW 18.4 mph - N/A   Partly Cloudy
9:35 PM 24.8 °F 11.5 °F 15.8 °F 69% 29.99 in 10.0 mi NW 17.3 mph - N/A   Clear
9:55 PM 23.0 °F 8.3 °F 15.8 °F 74% 29.99 in 10.0 mi NW 19.6 mph 26.5 mph N/A   Clear
10:15 PM 21.2 °F 5.2 °F 14.0 °F 74% 30.00 in 10.0 mi WNW 21.9 mph 26.5 mph N/A   Scattered Clouds
10:35 PM 21.2 °F 6.4 °F 12.2 °F 68% 30.01 in 10.0 mi NW 18.4 mph - N/A   Overcast
10:55 PM 19.4 °F 1.1 °F 8.6 °F 63% 30.01 in 10.0 mi NW 27.6 mph 33.4 mph N/A   Overcast
11:15 PM 19.4 °F 1.8 °F 3.2 °F 49% 30.03 in 10.0 mi NW 25.3 mph 33.4 mph N/A   Overcast
11:35 PM 17.6 °F -0.3 °F 1.4 °F 49% 30.04 in 10.0 mi NW 24.2 mph 29.9 mph N/A   Overcast
11:55 PM 15.8 °F -3.1 °F 1.4 °F 53% 30.04 in 10.0 mi NW 25.3 mph 34.5 mph N/A   Mostly Cloudy